Location: Newark
(41.4981°N, 44.1297°E)
Time: 10:11:54
(UTC+00:00)

Starlink Launch 2 trailer - Visible Passes

Search period start: 15 December 2019 00:00
Search period end: 25 December 2019 00:00
Orbit: 279 x 281 km, 53.0° (Epoch: 13 November)

Date Brightness Start Highest point End Pass type
(mag) Time Alt. Az. Time Alt. Az. Time Alt. Az.
20 Dec 5.6 15:45:32 10° SW 15:45:55 13° SW 15:45:55 13° SW visible
21 Dec 4.9 14:16:19 10° SE 14:16:37 10° SE 14:16:54 10° ESE visible
21 Dec 5.6 15:47:31 10° WSW 15:48:09 16° WSW 15:48:09 16° WSW visible
22 Dec 4.0 14:16:27 10° S 14:18:23 20° SE 14:20:11 11° E visible
22 Dec 5.7 15:49:47 10° W 15:50:19 14° W 15:50:19 14° W visible
23 Dec 2.8 14:17:50 10° SSW 14:20:12 44° SE 14:22:16 13° ENE visible
23 Dec 5.9 15:52:19 10° WNW 15:52:24 10° WNW 15:52:24 10° WNW visible
24 Dec 2.3 14:19:39 10° SW 14:22:07 76° NNW 14:24:18 12° NE visible
